Погода в Руйиене

Латвия     57°53′47″N   25°19′51″E
темп.,
°C
ветер,
м/с
пор.,
м/с
влажн.,
%
обл.,
%
осадки,
мм/ч
давл.,
гПа
погр.,
м
21 января, пт
пт2123:00−2с41093100 0.1 984679
02:00−2ссз41095100 0.4 987749
05:00−3ссз71493100 1.4 9901074
08:00−3ссз61493100 2.4 9931325
11:00−2ссз61493100 1.0 9951303
14:00−2ссз61390100 1.5 9961186
17:00−3ссз61293100 0.7 9991166
20:00−3с51191100 1.2 1001832
22 января, сб
сб2223:00−4с4118898 0.2 1005713
02:00−4с5129197 0.2 1008769
05:00−3с5128896 0.1 1011763
08:00−4с51286100 0.1 1013727
11:00−4с51082100 0.1 1015859
14:00−3с4108596 0.1 1016842
17:00−4с498993 0.1 1019752
20:00−4с389095 0.1 1020558
23 января, вс
вс2323:00−6ссз2797100 0.0 1022172
02:00−7ссз1498100 0.0 1024105
05:00−9ссз119975 0.0 102510
08:00−8ююв0097100 0.0 102613
11:00−5ю228797 0.0 1028155
14:00−3ююз258497 0.0 1028317
17:00−3ююз379271 0.0 1029294
20:00−4ююз3895100 0.1 1030266
24 января, пн
пн2423:00−3ю3896100 0.3 1030305
02:00−2ю41094100 0.4 1030349
05:00−3ю4119335 0.0 1029372
08:00−2ю41391100 0.0 1028436
11:00−2ююз5158711 0.0 1027498
14:00−1ю61486100 0.0 1024575
17:00−1ююз61691100 0.0 1022689
20:000ююз61493100 0.0 1020959
25 января, вт
вт2523:00+1ююз61396100 0.1 1018739
02:00+1юз51398100 0.1 1017697
05:00+2з61286100 0.1 1015938
08:00+1зсз5108994 0.1 1016726
11:000зсз410819 0.0 1017914
14:000зсз5117410 0.0 10171279
17:00−2зсз512755 0.0 1017797
20:00−3зсз512765 0.0 1018824